FW3914 Weather Reports


Display with metric or nautical units.
time (UTC)temp
F
wind
direction
speed
MPH
gust
MPH
rain 1hr
in
rain 24hr
in
rain mn
in
humidity
%
barometer
mb
20260904200814 100 166 6.0 7.0 0.00 0.00 0.00 43 1013.2
20260904200308 100 254 5.0 10.0 0.00 0.00 0.00 44 1013.0
20260904195808 100 243 6.0 14.0 0.00 0.00 0.00 46 1013.1
20260904195306 100 220 5.0 7.0 0.00 0.00 0.00 44 1013.3
20260904194801 99 214 2.0 9.0 0.00 0.00 0.00 46 1013.3
20260904194300 99 223 4.0 9.0 0.00 0.00 0.00 48 1013.3
20260904193755 100 202 4.0 9.0 0.00 0.00 0.00 46 1013.5
20260904193251 99 189 4.0 10.0 0.00 0.00 0.00 46 1013.5
20260904192746 100 238 5.0 7.0 0.00 0.00 0.00 46 1013.5
20260904192241 100 250 4.0 10.0 0.00 0.00 0.00 47 1013.6
20260904191738 98 188 4.0 7.0 0.00 0.00 0.00 47 1013.5
20260904191234 99 39 3.0 8.0 0.00 0.00 0.00 47 1013.7
20260904190730 99 190 2.0 7.0 0.00 0.00 0.00 47 1013.5
20260904190226 99 265 5.0 9.0 0.00 0.00 0.00 47 1013.7
20260904185722 98 219 3.0 9.0 0.00 0.00 0.00 48 1013.8
20260904185222 98 158 2.0 11.0 0.00 0.00 0.00 49 1013.9
20260904184721 98 262 3.0 10.0 0.00 0.00 0.00 48 1013.9
20260904184217 98 189 5.0 7.0 0.00 0.00 0.00 47 1013.9
20260904183712 99 268 3.0 7.0 0.00 0.00 0.00 48 1014.2
20260904183207 98 282 2.0 6.0 0.00 0.00 0.00 49 1014.2
20260904182702 98 330 4.0 8.0 0.00 0.00 0.00 47 1014.2
20260904182157 97 276 2.0 9.0 0.00 0.00 0.00 50 1014.3
20260904181653 97 329 1.0 8.0 0.00 0.00 0.00 48 1014.3
20260904181152 97 1 2.0 7.0 0.00 0.00 0.00 49 1014.4
20260904180648 98 238 2.0 4.0 0.00 0.00 0.00 49 1014.7
20260904180143 96 240 4.0 7.0 0.00 0.00 0.00 50 1014.6
20260904175642 96 6 1.0 8.0 0.00 0.00 0.00 52 1014.5
20260904175141 96 245 4.0 5.0 0.00 0.00 0.00 54 1014.4
20260904174635 95 212 3.0 6.0 0.00 0.00 0.00 52 1014.7
20260904174132 95 178 4.0 7.0 0.00 0.00 0.00 52 1014.8
20260904173627 95 358 1.0 6.0 0.00 0.00 0.00 53 1014.7
20260904173117 95 227 3.0 7.0 0.00 0.00 0.00 54 1014.9
20260904172613 95 114 1.0 9.0 0.00 0.00 0.00 54 1015.0
20260904172112 96 193 4.0 7.0 0.00 0.00 0.00 52 1015.0
20260904171607 95 183 1.0 10.0 0.00 0.00 0.00 55 1015.0
20260904171103 94 237 3.0 5.0 0.00 0.00 0.00 57 1015.2
20260904170558 93 9 2.0 6.0 0.00 0.00 0.00 57 1015.1
20260904170054 93 242 4.0 6.0 0.00 0.00 0.00 58 1015.1
20260904165553 93 274 2.0 11.0 0.00 0.00 0.00 58 1015.2
20260904165052 92 18 3.0 6.0 0.00 0.00 0.00 59 1015.1
20260904164547 92 221 5.0 8.0 0.00 0.00 0.00 60 1015.6
20260904164043 93 266 4.0 11.0 0.00 0.00 0.00 59 1015.3
20260904163543 93 259 3.0 7.0 0.00 0.00 0.00 59 1015.2
20260904163038 92 269 4.0 7.0 0.00 0.00 0.00 62 1015.2
20260904162533 92 241 2.0 11.0 0.00 0.00 0.00 61 1015.2
20260904162028 93 235 3.0 7.0 0.00 0.00 0.00 61 1015.3
20260904161523 92 151 3.0 6.0 0.00 0.00 0.00 61 1015.0
20260904161019 92 256 0.0 5.0 0.00 0.00 0.00 64 1015.1
20260904160513 92 263 3.0 9.0 0.00 0.00 0.00 63 1015.2
20260904160010 92 215 3.0 5.0 0.00 0.00 0.00 63 1015.1
20260904155509 91 223 3.0 7.0 0.00 0.00 0.00 65 1015.5
20260904155008 91 225 3.0 7.0 0.00 0.00 0.00 64 1015.3
20260904154502 90 267 2.0 8.0 0.00 0.00 0.00 67 1015.3
20260904153957 90 186 3.0 6.0 0.00 0.00 0.00 68 1015.1
20260904153452 90 244 4.0 8.0 0.00 0.00 0.00 69 1015.1
20260904152948 89 244 2.0 5.0 0.00 0.00 0.00 71 1015.1
20260904152444 89 150 5.0 9.0 0.00 0.00 0.00 71 1015.0
20260904151943 89 271 2.0 6.0 0.00 0.00 0.00 71 1015.1
20260904151439 89 225 3.0 5.0 0.00 0.00 0.00 74 1015.1
20260904150933 88 230 3.0 6.0 0.00 0.00 0.00 73 1015.1
20260904150428 88 187 2.0 6.0 0.00 0.00 0.00 74 1014.9
20260904145926 87 259 1.0 8.0 0.00 0.00 0.00 75 1015.0
20260904145423 88 308 3.0 5.0 0.00 0.00 0.00 76 1014.9
20260904144918 87 241 1.0 7.0 0.00 0.00 0.00 78 1015.1
20260904144413 86 199 4.0 8.0 0.00 0.00 0.00 79 1015.0
20260904143909 86 200 5.0 9.0 0.00 0.00 0.00 79 1014.9
20260904143405 86 143 6.0 8.0 0.00 0.00 0.00 80 1015.1
20260904142902 85 227 3.0 6.0 0.00 0.00 0.00 82 1015.0
20260904142358 84 201 3.0 8.0 0.00 0.00 0.00 83 1015.0
20260904141857 84 260 3.0 7.0 0.00 0.00 0.00 84 1015.0
20260904141353 84 202 1.0 7.0 0.00 0.00 0.00 85 1015.0
20260904140849 83 210 4.0 6.0 0.00 0.00 0.00 85 1015.3
20260904140343 82 198 1.0 6.0 0.00 0.00 0.00 87 1015.1
20260904135843 81 210 3.0 7.0 0.00 0.00 0.00 88 1015.1
20260904135337 82 192 2.0 7.0 0.00 0.00 0.00 88 1015.0
20260904134834 82 145 2.0 6.0 0.00 0.00 0.00 88 1015.0
20260904134333 82 160 3.0 5.0 0.00 0.00 0.00 88 1014.9
20260904133828 81 203 3.0 5.0 0.00 0.00 0.00 88 1014.7
20260904133324 81 239 2.0 5.0 0.00 0.00 0.00 89 1014.7
20260904132823 80 269 0.0 6.0 0.00 0.00 0.00 91 1014.9
20260904132319 80 228 3.0 6.0 0.00 0.00 0.00 91 1014.6
20260904131818 80 88 2.0 5.0 0.00 0.00 0.00 91 1014.6
20260904131313 79 250 4.0 7.0 0.00 0.00 0.00 91 1014.7
20260904130808 79 216 1.0 7.0 0.00 0.00 0.00 91 1014.5
20260904130307 79 235 2.0 6.0 0.00 0.00 0.00 92 1014.4
20260904125803 79 195 0.0 5.0 0.00 0.00 0.00 92 1014.5
20260904125258 78 263 1.0 7.0 0.00 0.00 0.00 93 1014.5
20260904124753 78 194 3.0 5.0 0.00 0.00 0.00 94 1014.4
20260904124250 78 278 2.0 4.0 0.00 0.00 0.00 94 1014.3
20260904123749 77 279 3.0 4.0 0.00 0.00 0.00 95 1014.2
20260904123245 77 198 2.0 3.0 0.00 0.00 0.00 95 1014.3
20260904122740 77 177 2.0 5.0 0.00 0.00 0.00 95 1014.5
20260904122234 77 319 2.0 3.0 0.00 0.00 0.00 95 1014.4
20260904121729 77 246 2.0 3.0 0.00 0.00 0.00 95 1014.4
20260904121225 77 245 1.0 3.0 0.00 0.00 0.00 95 1014.3
20260904120721 77 343 0.0 4.0 0.00 0.00 0.00 94 1014.5
20260904120217 77 264 2.0 3.0 0.00 0.00 0.00 94 1014.3
20260904115712 77 258 1.0 3.0 0.00 0.00 0.00 94 1014.3
20260904115212 77 316 0.0 3.0 0.00 0.00 0.00 94 1014.3
20260904114707 77 180 1.0 4.0 0.00 0.00 0.00 94 1014.2
20260904114207 77 211 3.0 6.0 0.00 0.00 0.00 94 1014.0
20260904113702 77 186 2.0 3.0 0.00 0.00 0.00 94 1013.9
20260904113201 77 239 3.0 5.0 0.00 0.00 0.00 94 1013.9
20260904112656 77 87 2.0 3.0 0.00 0.00 0.00 93 1014.0
20260904112152 77 144 0.0 3.0 0.00 0.00 0.00 93 1014.0
20260904111647 77 235 2.0 5.0 0.00 0.00 0.00 93 1013.8
20260904111143 77 155 2.0 4.0 0.00 0.00 0.00 93 1014.0
20260904110638 77 194 2.0 5.0 0.00 0.00 0.00 93 1013.8
20260904110137 77 239 2.0 3.0 0.00 0.00 0.00 93 1013.7
20260904105632 77 217 2.0 5.0 0.00 0.00 0.00 92 1013.9
20260904105127 77 310 2.0 4.0 0.00 0.00 0.00 92 1013.7
20260904104623 77 207 1.0 3.0 0.00 0.00 0.00 92 1013.8
20260904104118 77 273 0.0 4.0 0.00 0.00 0.00 92 1013.9
20260904103614 77 331 1.0 3.0 0.00 0.00 0.00 91 1013.7
20260904103110 77 257 2.0 3.0 0.00 0.00 0.00 91 1013.6
20260904102606 77 303 0.0 3.0 0.00 0.00 0.00 91 1013.7
20260904102101 77 226 1.0 3.0 0.00 0.00 0.00 91 1013.4
20260904101557 77 282 0.0 3.0 0.00 0.00 0.00 90 1013.7
20260904101052 77 118 2.0 4.0 0.00 0.00 0.00 90 1013.7
20260904100549 77 308 1.0 3.0 0.00 0.00 0.00 90 1013.5
20260904100043 77 321 0.0 3.0 0.00 0.00 0.00 90 1013.6
20260904095538 77 281 1.0 2.0 0.00 0.00 0.00 89 1013.5
20260904095033 77 132 2.0 5.0 0.00 0.00 0.00 89 1013.5
20260904094528 77 252 1.0 3.0 0.00 0.00 0.00 89 1013.5
20260904094023 77 258 2.0 4.0 0.00 0.00 0.00 89 1013.6
20260904093520 77 220 2.0 3.0 0.00 0.00 0.00 89 1013.6
20260904093015 77 277 1.0 2.0 0.00 0.00 0.00 88 1013.7
20260904092510 77 279 2.0 2.0 0.00 0.00 0.00 88 1013.7
20260904092007 77 160 3.0 4.0 0.00 0.00 0.00 88 1013.6
20260904091503 77 239 2.0 3.0 0.00 0.00 0.00 88 1013.5
20260904091002 77 232 0.0 3.0 0.00 0.00 0.00 88 1013.7
20260904090458 77 226 2.0 3.0 0.00 0.00 0.00 88 1013.6
20260904085957 77 224 1.0 3.0 0.00 0.00 0.00 88 1013.4
20260904085453 77 198 2.0 3.0 0.00 0.00 0.00 87 1013.6
20260904084952 77 194 1.0 3.0 0.00 0.00 0.00 87 1013.6
20260904084449 77 226 0.0 3.0 0.00 0.00 0.00 87 1013.5
20260904083944 77 202 0.0 5.0 0.00 0.00 0.00 86 1013.6
20260904083441 77 225 2.0 3.0 0.00 0.00 0.00 86 1013.5
20260904082936 78 216 2.0 4.0 0.00 0.00 0.00 86 1013.3
20260904082431 78 244 3.0 4.0 0.00 0.00 0.00 86 1013.2
20260904081926 78 233 2.0 5.0 0.00 0.00 0.00 86 1013.4
20260904081422 78 197 0.0 3.0 0.00 0.00 0.00 85 1013.4
20260904080918 78 207 1.0 4.0 0.00 0.00 0.00 85 1013.5
20260904080413 78 242 2.0 3.0 0.00 0.00 0.00 85 1013.6
20260904075909 78 212 1.0 3.0 0.00 0.00 0.00 85 1013.4
20260904075404 78 224 2.0 3.0 0.00 0.00 0.00 84 1013.4
20260904074903 78 238 1.0 3.0 0.00 0.00 0.00 84 1013.2
20260904074358 78 208 1.0 4.0 0.00 0.00 0.00 84 1013.4
20260904073853 78 150 1.0 5.0 0.00 0.00 0.00 84 1013.5
20260904073349 78 264 2.0 7.0 0.00 0.00 0.00 83 1013.3
20260904072844 78 232 2.0 6.0 0.00 0.00 0.00 83 1013.4
20260904072339 78 200 1.0 2.0 0.00 0.00 0.00 83 1013.4
20260904071834 78 256 2.0 4.0 0.00 0.00 0.00 83 1013.4
20260904071330 78 184 0.0 7.0 0.00 0.00 0.00 83 1013.4
20260904070825 78 303 1.0 4.0 0.00 0.00 0.00 82 1013.5
20260904070323 79 214 2.0 5.0 0.00 0.00 0.00 82 1013.4
20260904065818 79 232 0.0 3.0 0.00 0.00 0.00 82 1013.6
20260904065314 79 217 0.0 5.0 0.00 0.00 0.00 82 1013.7
20260904064809 79 184 2.0 5.0 0.00 0.00 0.00 81 1013.7
20260904064305 79 205 2.0 4.0 0.00 0.00 0.00 81 1013.5
20260904063801 79 165 0.0 5.0 0.00 0.00 0.00 81 1013.6
20260904063256 79 272 2.0 5.0 0.00 0.00 0.00 81 1013.8
20260904062752 79 251 2.0 7.0 0.00 0.00 0.00 80 1013.6
20260904062248 79 187 3.0 6.0 0.00 0.00 0.00 80 1013.6
20260904061743 79 174 1.0 4.0 0.00 0.00 0.00 79 1013.6
20260904061239 80 196 2.0 7.0 0.00 0.00 0.00 79 1013.6
20260904060736 80 152 2.0 5.0 0.00 0.00 0.00 79 1013.6
20260904060231 80 216 3.0 6.0 0.00 0.00 0.00 79 1013.8
20260904055727 80 226 4.0 7.0 0.00 0.00 0.00 78 1013.8
20260904055221 80 194 2.0 5.0 0.00 0.00 0.00 78 1013.6
20260904054717 80 206 3.0 5.0 0.00 0.00 0.00 78 1013.6
20260904054213 80 212 3.0 6.0 0.00 0.00 0.00 78 1013.5
20260904053708 80 164 3.0 6.0 0.00 0.00 0.00 78 1013.6
20260904053208 80 203 2.0 4.0 0.00 0.00 0.00 78 1013.4
20260904052704 80 232 1.0 3.0 0.00 0.00 0.00 77 1013.5
20260904052200 80 230 0.0 4.0 0.00 0.00 0.00 77 1013.7
20260904051656 80 278 0.0 4.0 0.00 0.00 0.00 76 1013.7
20260904051150 80 255 2.0 4.0 0.00 0.00 0.00 76 1013.3
20260904050646 80 226 1.0 5.0 0.00 0.00 0.00 76 1013.5
20260904050137 80 242 2.0 3.0 0.00 0.00 0.00 76 1013.5
20260904045636 80 356 1.0 6.0 0.00 0.03 0.03 75 1013.5
20260904045131 80 320 2.0 4.0 0.00 0.03 0.03 75 1013.5
20260904044626 80 198 2.0 4.0 0.00 0.03 0.03 75 1013.4
20260904044123 80 205 0.0 5.0 0.00 0.03 0.03 75 1013.7
20260904043619 80 214 1.0 4.0 0.00 0.03 0.03 74 1013.6
20260904043115 81 235 2.0 5.0 0.00 0.03 0.03 74 1013.7
20260904042611 81 257 2.0 3.0 0.00 0.03 0.03 74 1013.6
20260904042106 81 177 2.0 5.0 0.00 0.03 0.03 73 1013.7
20260904041601 81 218 2.0 5.0 0.00 0.03 0.03 73 1013.6
20260904041057 81 210 2.0 5.0 0.00 0.03 0.03 74 1013.7
20260904040557 81 227 2.0 4.0 0.00 0.03 0.03 74 1013.6
20260904040054 81 186 3.0 5.0 0.00 0.03 0.03 74 1013.6
20260904035549 81 194 2.0 8.0 0.00 0.03 0.03 74 1013.8
20260904035049 81 226 0.0 6.0 0.00 0.03 0.03 74 1013.7
20260904034543 81 262 2.0 5.0 0.00 0.03 0.03 74 1013.6
20260904034039 81 236 2.0 6.0 0.00 0.03 0.03 74 1013.5
20260904033535 81 131 2.0 5.0 0.00 0.03 0.03 75 1013.8
20260904033032 81 254 2.0 5.0 0.00 0.03 0.03 76 1013.5
20260904032528 82 250 1.0 5.0 0.00 0.03 0.03 76 1013.8
20260904032026 82 196 3.0 5.0 0.00 0.03 0.03 75 1013.6
20260904031521 82 149 2.0 4.0 0.00 0.03 0.03 76 1013.8
20260904031017 82 212 2.0 5.0 0.00 0.03 0.03 76 1013.8
20260904030513 82 225 3.0 4.0 0.00 0.03 0.03 76 1013.4
20260904030008 82 242 1.0 4.0 0.00 0.03 0.03 76 1013.7
20260904025504 82 181 3.0 6.0 0.00 0.03 0.03 76 1013.6
20260904025004 82 208 2.0 6.0 0.00 0.03 0.03 76 1013.7
20260904024459 82 246 4.0 5.0 0.00 0.03 0.03 76 1013.5
20260904023955 82 194 1.0 5.0 0.00 0.03 0.03 75 1013.1
20260904023451 83 217 2.0 7.0 0.00 0.03 0.03 75 1013.0
20260904022950 83 132 3.0 4.0 0.00 0.03 0.03 74 1013.0
20260904022446 83 168 2.0 9.0 0.00 0.03 0.03 73 1013.1
20260904021943 83 233 3.0 9.0 0.00 0.03 0.03 73 1012.8
20260904021438 84 179 3.0 9.0 0.00 0.03 0.03 72 1012.9
20260904020933 84 250 3.0 5.0 0.00 0.03 0.03 71 1012.8
20260904020428 84 203 3.0 6.0 0.00 0.03 0.03 72 1012.3
20260904015926 84 227 3.0 6.0 0.00 0.03 0.03 74 1012.5
20260904015422 84 275 2.0 8.0 0.00 0.03 0.03 74 1012.3
20260904014921 84 235 3.0 8.0 0.00 0.03 0.03 74 1012.3
20260904014416 84 135 3.0 7.0 0.00 0.03 0.03 73 1012.2
20260904013912 85 125 3.0 7.0 0.00 0.03 0.03 73 1012.4
20260904013408 85 227 3.0 6.0 0.00 0.03 0.03 73 1012.3
20260904012903 85 145 2.0 6.0 0.00 0.03 0.03 73 1012.0
20260904012358 85 173 2.0 4.0 0.00 0.03 0.03 72 1012.4
20260904011857 85 201 2.0 4.0 0.00 0.03 0.03 72 1012.1
20260904011352 85 269 0.0 4.0 0.00 0.03 0.03 71 1012.0
20260904010847 85 182 1.0 5.0 0.00 0.03 0.03 71 1012.0
20260904010344 86 259 1.0 6.0 0.00 0.03 0.03 71 1012.0
20260904005839 86 168 1.0 5.0 0.00 0.03 0.03 70 1012.0
20260904005334 86 255 3.0 5.0 0.00 0.03 0.03 70 1012.0
20260904004829 86 192 2.0 5.0 0.00 0.03 0.03 69 1012.1
20260904004326 86 261 3.0 6.0 0.00 0.03 0.03 68 1012.2
20260904003821 87 339 3.0 5.0 0.00 0.03 0.03 67 1012.2
20260904003317 87 316 2.0 6.0 0.00 0.03 0.03 66 1012.2
20260904002812 87 306 2.0 9.0 0.00 0.03 0.03 65 1011.8
20260904002308 87 304 3.0 7.0 0.00 0.03 0.03 64 1011.9
20260904001807 88 274 3.0 6.0 0.00 0.03 0.03 62 1011.8
20260904001302 88 264 3.0 5.0 0.00 0.03 0.03 62 1011.8
20260904000757 88 285 1.0 9.0 0.00 0.03 0.03 61 1011.9
20260904000256 89 178 5.0 12.0 0.00 0.03 0.03 61 1012.0
20260903235751 89 214 5.0 9.0 0.00 0.03 0.03 61 1011.9
20260903235248 90 273 2.0 10.0 0.00 0.03 0.03 62 1011.7
20260903234746 90 358 5.0 8.0 0.00 0.03 0.03 61 1011.6
20260903234243 90 244 5.0 8.0 0.00 0.03 0.03 61 1011.8
20260903233739 91 185 5.0 11.0 0.00 0.03 0.03 60 1011.7
20260903233235 92 13 4.0 6.0 0.00 0.03 0.03 59 1011.6
20260903232733 92 326 3.0 6.0 0.00 0.03 0.03 59 1011.4
20260903232230 92 302 1.0 8.0 0.00 0.03 0.03 59 1011.5
20260903231728 93 224 5.0 12.0 0.00 0.03 0.03 59 1011.5
20260903231224 93 171 4.0 8.0 0.00 0.03 0.03 57 1011.6
20260903230719 93 239 2.0 10.0 0.00 0.03 0.03 59 1011.5
20260903230214 92 293 3.0 9.0 0.00 0.03 0.03 58 1011.6
20260903225710 93 245 3.0 9.0 0.00 0.03 0.03 58 1011.6
20260903225207 92 55 4.0 11.0 0.00 0.03 0.03 58 1011.6
20260903224703 93 12 1.0 9.0 0.00 0.03 0.03 57 1011.5
20260903224158 94 247 6.0 9.0 0.00 0.03 0.03 55 1011.4
20260903223653 94 274 2.0 6.0 0.00 0.03 0.03 56 1011.5
20260903223151 93 355 5.0 9.0 0.00 0.03 0.03 58 1011.5
20260903222646 94 16 3.0 9.0 0.00 0.03 0.03 56 1011.2
20260903222144 95 294 4.0 8.0 0.00 0.03 0.03 56 1011.6
20260903221640 94 47 2.0 7.0 0.00 0.03 0.03 56 1011.5
20260903221138 94 262 4.0 12.0 0.00 0.03 0.03 56 1011.4
20260903220637 94 212 2.0 10.0 0.00 0.03 0.03 55 1011.5
20260903220132 94 295 3.0 8.0 0.00 0.03 0.03 56 1011.8
20260903215631 95 29 4.0 8.0 0.00 0.03 0.03 55 1011.8
20260903215126 95 215 3.0 9.0 0.00 0.03 0.03 56 1011.6
20260903214625 94 199 3.0 7.0 0.00 0.03 0.03 56 1011.7
20260903214121 95 359 4.0 7.0 0.00 0.03 0.03 55 1011.9
20260903213615 95 228 6.0 10.0 0.00 0.03 0.03 56 1011.8
20260903213111 95 93 3.0 10.0 0.00 0.03 0.03 55 1011.9
20260903212607 94 248 5.0 8.0 0.00 0.03 0.03 57 1011.7
20260903212102 94 202 3.0 9.0 0.00 0.03 0.03 57 1012.0
20260903211557 94 296 3.0 9.0 0.00 0.03 0.03 58 1011.9
20260903211053 94 219 2.0 7.0 0.00 0.03 0.03 59 1011.8
20260903210548 94 263 3.0 9.0 0.00 0.03 0.03 58 1011.9
20260903210039 92 205 4.0 12.0 0.00 0.03 0.03 60 1012.0
20260903205537 93 114 3.0 8.0 0.00 0.03 0.03 59 1012.2
20260903205032 92 192 1.0 7.0 0.00 0.03 0.03 60 1012.1
20260903204528 93 228 5.0 10.0 0.00 0.03 0.03 60 1012.2
20260903204023 92 322 4.0 10.0 0.00 0.03 0.03 60 1012.4
20260903203519 93 186 1.0 10.0 0.00 0.03 0.03 60 1012.6
20260903203018 93 210 3.0 8.0 0.00 0.03 0.03 62 1012.6
20260903202514 92 203 4.0 8.0 0.00 0.03 0.03 61 1012.4
20260903202009 92 313 4.0 10.0 0.00 0.03 0.03 62 1012.5
20260903201458 92 181 3.0 13.0 0.00 0.03 0.03 62 1012.5